This is the latest recevied weather packets stored in our database for station/object K4SHP-16. If no packets are shown the sender has not sent any weather packets the latest 10 day(s).
| Time | Temp. | Humidity | Pressure | Rain* | Wind** | Luminosity | Snow |
|---|---|---|---|---|---|---|---|
| 1777566964 | 19.44° C | 82% | 1010.1 hPa | 0 mm | - | - | - |
| 1777565344 | 18.33° C | 86% | 1010.4 hPa | 0 mm | - | - | - |
| 1777563904 | 17.78° C | 87% | 1010.6 hPa | 0 mm | - | - | - |
| 1777561744 | 17.22° C | 89% | 1011.3 hPa | 0 mm | - | - | - |
| 1777560325 | 17.22° C | 89% | 1011.1 hPa | 0 mm | - | - | - |
| 1777559223 | 17.78° C | 91% | 1011.3 hPa | 0 mm | - | - | - |
| 1777558144 | 17.78° C | 91% | 1011.3 hPa | 0 mm | - | - | - |
| 1777557243 | 17.78° C | 91% | 1010.7 hPa | 0 mm | - | - | - |
| 1777555105 | 18.33° C | 91% | 1009.8 hPa | 0 mm | - | - | - |
| 1777553644 | 18.89° C | 90% | 1010.6 hPa | 0 mm | - | - | - |
| 1777546803 | 19.44° C | 91% | 1008.5 hPa | 0 mm | - | - | - |
| 1777546444 | 19.44° C | 91% | 1008.4 hPa | 0 mm | - | - | - |
| 1777545903 | 19.44° C | 91% | 1008.1 hPa | 0 mm | - | - | - |
| 1777544824 | 19.44° C | 91% | 1007.7 hPa | 0 mm | - | - | - |
| 1777543204 | 19.44° C | 91% | 1007.9 hPa | 0 mm | - | - | - |
| 1777539603 | 19.44° C | 90% | 1008 hPa | 0 mm | - | - | - |
| 1777536543 | 20.56° C | 89% | 1007.7 hPa | 0 mm | - | - | - |
| 1777535103 | 20.56° C | 88% | 1007.8 hPa | 0 mm | - | - | - |
| 1777534023 | 21.11° C | 88% | 1007.8 hPa | 0 mm | - | - | - |
| 1777530445 | 20.56° C | 89% | 1008.4 hPa | 0 mm | - | - | - |
| 1777526844 | 20.56° C | 89% | 1009 hPa | 0 mm | - | - | - |
| 1777526284 | 20.56° C | 89% | 1009.4 hPa | 0 mm | - | - | - |
| 1777525743 | 20.56° C | 89% | 1009.4 hPa | 0 mm | - | - | - |
| 1777522704 | 20.56° C | 88% | 1009.4 hPa | 0 mm | - | - | - |
| 1777521624 | 20.56° C | 87% | 1009.6 hPa | 0 mm | - | - | - |
* Rain latest hour (hover to see other rain measurements)
** Current wind speed in m/s (hover to see current wind gust speed)